星链-37761(STARLINK-37761)

导读

STARLINK-37761(NORAD编号69200)是SpaceX星链星座的组网卫星,星链是SpaceX开发的全球卫星互联网项目,旨在为全球提供低成本、高性能的宽带互联网服务。该卫星运行于近地轨道,属于星链大规模星座部署中的一颗,星链星座截至2026年3月已有超过9600颗卫星在轨,为全球164个国家超1030万订阅用户提供服务,STARLINK-37761作为星座成员,承担着全球网络覆盖,增强星座通信容量的作用,助力SpaceX实现全球无缝卫星互联网接入的目标。

基本信息
目录编号:
69200
目录名称:
STARLINK-37761
国际标识:
2026-114U
轨道中心:
EARTH
卫星名称:
星链-37761
卫星全名:
星链-37761(STARLINK-37761)
卫星状态:
在轨 (已飞行109 天)
发射日期:
2026-05-25 UTC
国别 :
美国 (US)
星等 :
--
该卫星已列入 空间交会检测服务 Space Conjunction Data Service (SCDS) ,当前飞行风险评估等级: 高风险
轨道信息
数据来源 国际轨道数据
星历时间: 2026-09-11T10:19:33+0800
14小时前
查看轨道信息
半长轴: 6840.82km
偏心率: 0.0001449
轨道倾角: 53.158°
近地点辐角 91.643°
升交点赤经 157.612°
平近点角 268.474°
近地点: 461.691km
远地点: 463.675km
周期: 93.847分钟
每日圈数: 15.34407
详细信息
固有亮度:
5
最大亮度:
2.5
卫星平台:
Starlink V1.0
覆盖范围:
全球
运营商:
太空探索技术公司
运营商所在国:
美国
制造商(研发单位):
太空探索技术公司
制造商所在国:
美国
使用方式:
暂无
卫星简介
Starlink 计划是 SpaceX 推出的全球卫星互联网项目,通过发射低轨道卫星,为全球尤其是偏远地区提供高速、低延迟的互联网服务。自 2019 年起,Starlink 已部署数千颗卫星,旨在缩小全球数字鸿沟,推动互联网普及。该项目还为军事、航空等行业提供通信支持,带来广泛经济效益。
2D轨道图
3D轨道图
轨道高度分析图
轨道倾角分析图
轨道综合分析图
查看轨道综合分析图
交会数据列表
事件ID 空间交会对象 最接近时刻(TCA) 交会距离 交会风险概率(CRP) 交会风险指数(CRI) 操作
CDM_260913-071106-154706-920021
2026-09-13T
07:11:05+0000
0.298 km
中距离
3.743497E-4 高风险 0.86
CDM_260913-030305-235506-920021
2026-09-13T
03:03:43+0000
0.472 km
远距离
1.594297E-4 高风险 0.79
CDM_260912-152005-235506-920021
2026-09-12T
15:20:17+0000
0.748 km
远距离
4.486026E-5 中风险 0.68
CDM_260912-210106-154706-920021
2026-09-12T
21:01:27+0000
0.975 km
远距离
1.788409E-5 中风险 0.6
CDM_260912-060403-944206-920022
2026-09-12T
06:04:13+0000
1.933 km
极远距离
2.720021E-6 低风险 0.44
CDM_260912-165405-235506-920021
2026-09-12T
16:54:04+0000
1.965 km
极远距离
1.980718E-6 低风险 0.41
CDM_260912-223506-154706-920021
2026-09-12T
22:35:14+0000
2.062 km
极远距离
1.70007E-6 低风险 0.4
CDM_260913-043705-235506-920021
2026-09-13T
04:37:31+0000
2.722 km
极远距离
1.046285E-6 低风险 0.35
与全量物体交会距离演化趋势
与全量物体交会风险概率演化趋势